Change the Weather History Date:

Thursday, March 5, 2015

  Actual Average Record
Temperature  
Mean Temperature 49 °F -  
Max Temperature 64 °F 60 °F 82 °F (1955)
Min Temperature 30 °F 37 °F 10 °F (1960)
Degree Days  
Heating Degree Days 16    
Moisture  
Dew Point 49 °F    
Average Humidity 89    
Maximum Humidity 97    
Minimum Humidity 64    
Precipitation  
Precipitation 1.03 in - - ()
Sea Level Pressure  
Sea Level Pressure 29.92 in    
Wind  
Wind Speed 11 mph (East)    
Max Wind Speed 18 mph    
Max Gust Speed 29 mph    
Visibility 7 miles    
Events Rain    
Averages and records for this station are not official NWS values.
T = Trace of Precipitation, MM = Missing Value Source: NWS Daily Summary

Daily Weather History Graph

Daily Weather History Graph

Search for Another Location

Airport or City:

Trip Planner

Search our weather history database for the weather conditions in past years. The results will help you decide how hot, cold, wet, or windy it might be!

Date:

Astronomy

Mar. 05, 2015 Rise Set
Actual Time 6:50 AM EST 6:24 PM EST
Civil Twilight 6:24 AM EST 6:49 PM EST
Nautical Twilight 5:55 AM EST 7:19 PM EST
Astronomical Twilight 5:25 AM EST 7:48 PM EST
Moon 6:34 PM EST (3/5) 6:35 AM EST (3/5)
Length of Visible Light 12h 24m
Length of Day
11h 33m
Full, 100% of the Moon is Illuminated
Mar 5
Full
Mar 5
Full
Mar 13
Last Quarter
Mar 20
New
Mar 27
First Quarter

Hourly Weather History & Observations

Time (EST) Temp. Windchill Dew Point Humidity Pressure Visibility Wind Dir Wind Speed Gust Speed Precip Events Conditions
12:53 AM 64.9 °F - 57.9 °F 78% 29.79 in 10.0 mi SSW 15.0 mph 25.3 mph N/A   Overcast
1:53 AM 63.0 °F - 59.0 °F 87% 29.79 in 10.0 mi SSW 18.4 mph 27.6 mph 0.00 in   Overcast
2:36 AM 63.0 °F - 59.0 °F 87% 29.84 in 10.0 mi SSW 15.0 mph 25.3 mph N/A   Mostly Cloudy
2:53 AM 63.0 °F - 60.1 °F 90% 29.78 in 10.0 mi SSW 12.7 mph - N/A   Overcast
3:04 AM 63.0 °F - 60.1 °F 90% 29.83 in 10.0 mi South 12.7 mph 21.9 mph N/A   Overcast
3:53 AM 63.0 °F - 60.1 °F 90% 29.76 in 10.0 mi SSW 9.2 mph - N/A   Overcast
4:08 AM 63.0 °F - 60.1 °F 90% 29.81 in 10.0 mi South 10.4 mph - N/A   Overcast
4:53 AM 63.0 °F - 60.1 °F 90% 29.76 in 10.0 mi South 9.2 mph - N/A   Overcast
5:02 AM 63.0 °F - 60.1 °F 90% 29.82 in 10.0 mi SSW 11.5 mph 19.6 mph N/A   Overcast
5:11 AM 63.0 °F - 60.1 °F 90% 29.81 in 10.0 mi SSW 8.1 mph 19.6 mph N/A   Overcast
5:53 AM 63.0 °F - 60.1 °F 90% 29.78 in 10.0 mi South 13.8 mph - 0.01 in   Overcast
6:00 AM 63.0 °F - 60.1 °F 90% 29.82 in 10.0 mi South 9.2 mph 18.4 mph N/A   Overcast
6:12 AM 63.0 °F - 60.1 °F 90% 29.81 in 10.0 mi SSW 12.7 mph 19.6 mph N/A   Overcast
6:53 AM 64.0 °F - 60.1 °F 87% 29.78 in 10.0 mi SSW 10.4 mph 19.6 mph N/A   Overcast
7:21 AM 63.0 °F - 60.1 °F 90% 29.82 in 9.0 mi South 9.2 mph - N/A   Overcast
7:43 AM 63.0 °F - 61.0 °F 93% 29.83 in 4.0 mi South 5.8 mph - 0.00 in Rain Light Rain
7:47 AM 62.6 °F - 60.8 °F 94% 29.83 in 2.5 mi South 5.8 mph - 0.01 in Rain Rain
7:50 AM 62.6 °F - 60.8 °F 94% 29.83 in 1.8 mi South 3.5 mph - 0.03 in Rain Rain
7:53 AM 63.0 °F - 61.0 °F 93% 29.78 in 1.2 mi SSW 6.9 mph - 0.04 in Rain Heavy Rain
8:07 AM 63.0 °F - 61.0 °F 93% 29.84 in 2.0 mi SSW 6.9 mph - 0.03 in Rain Rain
8:09 AM 63.0 °F - 61.0 °F 93% 29.84 in 1.8 mi SSW 6.9 mph - 0.03 in Rain Rain
8:18 AM 63.0 °F - 61.0 °F 93% 29.83 in 2.0 mi South 6.9 mph - 0.04 in Rain Light Rain
8:21 AM 63.0 °F - 61.0 °F 93% 29.83 in 3.0 mi South 4.6 mph - 0.04 in Rain Light Rain
8:28 AM 63.0 °F - 61.0 °F 93% 29.84 in 7.0 mi South 6.9 mph - 0.04 in Rain Light Rain
8:53 AM 64.0 °F - 62.1 °F 93% 29.78 in 10.0 mi Variable 6.9 mph - 0.05 in   Overcast
9:53 AM 55.0 °F - 52.0 °F 89% 29.81 in 10.0 mi NE 12.7 mph - N/A   Overcast
10:05 AM 51.1 °F - 48.9 °F 92% 29.86 in 10.0 mi NE 12.7 mph 21.9 mph N/A   Overcast
10:26 AM 48.0 °F - 46.9 °F 96% 29.86 in 1.8 mi ENE 16.1 mph - 0.06 in Rain Heavy Rain
10:39 AM 48.0 °F - 46.0 °F 93% 29.86 in 3.0 mi ENE 17.3 mph - 0.09 in Rain Light Rain
10:50 AM 46.4 °F 39.2 °F 44.6 °F 93% 29.87 in 1.8 mi NE 18.4 mph 26.5 mph 0.15 in Rain Heavy Rain
10:53 AM 46.9 °F - 45.0 °F 93% 29.84 in 1.2 mi ENE 10.4 mph 26.5 mph 0.16 in Rain Heavy Rain
11:17 AM 46.9 °F - 45.0 °F 93% 29.94 in 1.0 mi North 11.5 mph 28.8 mph 0.17 in Rain Heavy Rain
11:43 AM 46.9 °F - 46.0 °F 97% 29.95 in 1.0 mi North 13.8 mph 25.3 mph 0.41 in Rain Heavy Rain
11:53 AM 46.9 °F - 45.0 °F 93% 29.92 in 2.5 mi NNE 10.4 mph 21.9 mph 0.44 in Rain Heavy Rain
12:12 PM 46.9 °F - 45.0 °F 93% 29.95 in 2.5 mi NNE 8.1 mph - 0.05 in Rain Rain
12:24 PM 46.0 °F 41.0 °F 45.0 °F 96% 29.97 in 2.5 mi NNE 10.4 mph - 0.08 in Rain Rain
12:33 PM 46.0 °F 41.9 °F 44.1 °F 93% 29.97 in 1.5 mi NNE 8.1 mph 19.6 mph 0.12 in Rain Heavy Rain
12:53 PM 46.0 °F 41.0 °F 45.0 °F 96% 29.94 in 3.0 mi NE 10.4 mph - 0.16 in Rain Light Rain
12:59 PM 46.0 °F 41.9 °F 45.0 °F 96% 29.98 in 2.5 mi NNE 8.1 mph - 0.01 in Rain Light Rain
1:18 PM 46.0 °F 41.9 °F 44.1 °F 93% 29.98 in 2.5 mi NE 8.1 mph - 0.06 in Rain Rain
1:25 PM 46.0 °F 41.0 °F 44.1 °F 93% 29.97 in 3.0 mi NE 10.4 mph - 0.07 in Rain Rain
1:34 PM 45.0 °F 40.1 °F 44.1 °F 97% 29.97 in 4.0 mi NE 9.2 mph - 0.08 in Rain Rain
1:53 PM 46.0 °F 41.9 °F 44.1 °F 93% 29.93 in 4.0 mi NE 8.1 mph - 0.11 in Rain Light Rain
2:53 PM 44.1 °F 38.1 °F 41.0 °F 89% 29.92 in 10.0 mi ENE 11.5 mph - 0.03 in Rain Light Rain
3:53 PM 42.1 °F 36.6 °F 39.0 °F 89% 30.00 in 10.0 mi NE 9.2 mph - 0.00 in Rain Light Rain
4:01 PM 42.1 °F 36.1 °F 39.9 °F 92% 30.04 in 10.0 mi NE 10.4 mph - 0.00 in Rain Light Rain
4:12 PM 42.1 °F 35.7 °F 39.0 °F 89% 30.03 in 10.0 mi ENE 11.5 mph - 0.00 in   Overcast
4:53 PM 42.1 °F 38.4 °F 39.0 °F 89% 30.05 in 10.0 mi North 5.8 mph - 0.01 in Rain Light Rain
5:53 PM 41.0 °F 35.2 °F 37.9 °F 89% 30.08 in 10.0 mi NNE 9.2 mph - 0.02 in Rain Light Rain
6:53 PM 37.9 °F 30.0 °F 30.0 °F 73% 30.12 in 10.0 mi NNE 12.7 mph - 0.00 in   Overcast
7:28 PM 37.0 °F 29.8 °F 28.9 °F 73% 30.20 in 10.0 mi North 10.4 mph 20.7 mph N/A   Overcast
7:53 PM 37.0 °F 28.5 °F 28.0 °F 70% 30.19 in 10.0 mi North 13.8 mph 23.0 mph N/A   Overcast
8:53 PM 36.0 °F 29.0 °F 25.0 °F 64% 30.22 in 10.0 mi NNE 9.2 mph - N/A   Overcast
9:53 PM 35.1 °F 27.9 °F 24.1 °F 64% 30.26 in 10.0 mi NNE 9.2 mph - N/A   Overcast
10:53 PM 34.0 °F 25.5 °F 23.0 °F 64% 30.29 in 10.0 mi NNE 11.5 mph - N/A   Scattered Clouds
11:53 PM 30.9 °F 22.8 °F 21.0 °F 67% 30.31 in 10.0 mi NNE 9.2 mph - N/A   Clear